Regional Weather Roundup
Issued by NWS

Home | Current Version | Previous Version | Graphics & Text | Print | Product List | Glossary On
Versions: 1 2 3 4 5 6 7 8 9 10 11 12 13 14 15 16 17 18 19 20 21 22 23 24 25 26 27 28 29 30 31 32 33 34 35 36 37 38 39 40 41 42 43 44 45 46 47 48 49 50
000
ASUS43 KDMX 301703
RWRIA

WEATHER ROUNDUP FOR IOWA
NATIONAL WEATHER SERVICE DES MOINES IA
1200 PM CDT MON MAY 30 2016

NOTE: "FAIR" INDICATES FEW OR NO CLOUDS BELOW 12,000 FEET WITH NO
SIGNIFICANT WEATHER AND/OR OBSTRUCTIONS TO VISIBILITY.

* - THESE STATIONS ARE NOT NWS STATIONS...THUS NOT UNDER NWS
QUALITY CONTROL.  THEY ALSO DO NOT REPORT WEATHER SUCH
AS PRECIPITATION OR FOG.

IAZ001>003-012>014-020>022-031>034-043>046-301800-
   NORTHWEST IOWA

CITY           SKY/WX    TMP DP  RH WIND       PRES   REMARKS
CARROLL *      SUNNY     79  61  53 S9G15     29.99F HX  80
CHEROKEE *     MOSUNNY   79  58  48 S12G17    29.98F HX  80
DENISON *      SUNNY     81  59  47 S7G14     29.96F HX  81
LE MARS *      MOSUNNY   79  59  50 S10       29.97F HX  80
ORANGE CITY *  SUNNY     77  55  47 S9G16     29.98F
SHELDON *      MOSUNNY   77  57  50 SE17G24   29.98S
SIOUX CITY     SUNNY     81  60  48 S9        29.96F HX  82
SPENCER        MOSUNNY   77  55  46 SE15      29.99F
STORM LAKE *   SUNNY     79  55  44 S15G22    29.99F
$$

IAZ055>058-069>071-079>083-090>094-301800-
   SOUTHWEST IOWA

CITY           SKY/WX    TMP DP  RH WIND       PRES   REMARKS
ATLANTIC *     SUNNY     81  61  50 S12G17    29.98F HX  81
AUDUBON *      SUNNY     82  61  47 S9        30.00F HX  83
CLARINDA *       N/A     82  68  61 MISG      30.00F HX  85
COUNCIL BLFS * SUNNY     79  63  57 SW9       29.99F HX  80
CRESTON *      SUNNY     81  64  57 SW10G17   30.02F HX  82
HARLAN  *      MOSUNNY   82  57  42 S12       30.01F HX  82
LAMONI         SUNNY     80  66  62 SW12      30.02F HX  82
RED OAK *      SUNNY     82  64  54 S7        29.99S HX  84
SHENANDOAH *   SUNNY     84  63  48 SW10G21   29.99S HX  85
$$

IAZ047>049-059>061-072>074-084-301800-
   CENTRAL IOWA

CITY           SKY/WX    TMP DP  RH WIND       PRES   REMARKS
AMES           SUNNY     80  61  52 SE15      30.00F HX  81
ANKENY *       SUNNY     81  66  61 SE8       30.00F HX  83
BOONE *        SUNNY     81  61  50 SE15      30.00S HX  81
CHARITON *     SUNNY     82  64  54 SW9G16    30.02S HX  84
DES MOINES     MOSUNNY   83  62  49 SE7       29.99F HX  84
GRINNELL*      SUNNY     79  59  50 E13G20    30.03F HX  80
KNOXVILLE *    SUNNY     82  61  47 SW7G14    30.01S HX  83
MARSHALLTOWN   SUNNY     78  54  43 SE20G29   30.01F
NEWTON *       SUNNY     82  64  54 SE10G17   30.00F HX  84
PELLA *        SUNNY     82  65  56 S6        30.03S HX  84
PERRY *          N/A     79  66  65 E8        30.00F HX  81
$$

IAZ004>006-015-016-023>025-035-036-301800-
   NORTH CENTRAL IOWA

CITY           SKY/WX    TMP DP  RH WIND       PRES   REMARKS
ALGONA *       SUNNY     79  55  44 SE13      30.00F
CLARION *      SUNNY     75  61  60 SE16      30.01F
ESTHERVILLE    SUNNY     75  57  53 SE15      29.99F
FORT DODGE *   SUNNY     79  55  44 SE13G18   30.00F
MASON CITY     SUNNY     76  57  51 SE13      30.04F
FOREST CITY *  SUNNY     73  54  49 SE10      30.02F
WEBSTER CITY * SUNNY     79  55  44 SE17      29.99S
IOWA FALLS *     N/A     79  57  47 E13       30.03S HX  80
$$

IAZ007>011-017>019-026>030-037>042-050>054-066-301800-
   NORTHEAST IOWA

CITY           SKY/WX    TMP DP  RH WIND       PRES   REMARKS
CEDAR RAPIDS   SUNNY     77  60  55 E14       30.04F
CHARLES CITY * SUNNY     75  54  46 S10       30.04S
CLINTON *      CLOUDY    79  58  48 W13       30.06S HX  80
DECORAH *      CLOUDY    77  52  41 S7        30.03F
DUBUQUE        CLOUDY    77  53  43 NW7       30.08F
MONTICELLO *   CLOUDY    73  57  56 CALM      30.06F
OELWEIN *      CLOUDY    75  54  46 SE14G20   30.03R
WATERLOO       SUNNY     74  59  59 S9        30.01F
$$

IAZ064-065-067-068-078-301800-
   EAST CENTRAL IOWA

CITY           SKY/WX    TMP DP  RH WIND       PRES   REMARKS
DAVENPORT      PTSUNNY   74  63  68 NW8       30.06F
IOWA CITY      SUNNY     79  62  56 NE12      30.06F HX  80
MT. PLEASANT * SUNNY     79  66  65 S5        30.04F HX  81
MUSCATINE *    PTSUNNY   77  61  57 NE6       30.04S
QUAD CITIES    MOSUNNY   81  60  48 N8        30.03F HX  82
$$

IAZ062-063-075>077-085>089-095>099-301800-
   SOUTHEAST IOWA

CITY           SKY/WX    TMP DP  RH WIND       PRES   REMARKS
BURLINGTON     MOSUNNY   78  63  59 E7        30.04F HX  80
FAIRFIELD *      N/A    N/A N/A N/A MISG        N/A
FORT MADISON * SUNNY     82  61  47 E6        30.05F HAZE    HX  83
KEOKUK *       SUNNY     81  61  50 VRB5      30.04F HX  81
OSKALOOSA *      N/A     81  63  54 S5        30.04S HX  82
OTTUMWA        SUNNY     80  67  64 S5        30.03S HX  82
WASHINGTON *   MOSUNNY   81 -31   1 CALM      30.05S
$$

ABBREVIATIONS USED IN REMARKS
   TC - TEMPERATURES IN CELSIUS
  WCI - WIND CHILL INDEX
   HX - HEAT INDEX
  VSB - VISIBILITY
$$





USA.gov is the U.S. government's official web portal to all federal, state and local government web resources and services.